sat.trackr.live / text

‹ back to catalog

STARLINK-3146

NORAD 49414 · 2021-104G

PAYLOAD ACTIVE UNKNOWN

§ Identity

Operator
Country
US
Launch date
2021-11-13
Launch site
AFETR
Launch vehicle
Mass (kg)
RCS (m²)

Purposes: comms

External: N2YO · Heavens-Above · Gunter

§ Orbital elements

Epoch: 2026-05-25T05:21:03.305952Z

Period
95.44 min
Inclination
53.2154°
Eccentricity
0.0001545
Mean motion
15.08761031 rev/d
Perigee alt
538.9 km
Apogee alt
541.1 km
Semi-major
6,918.1 km
B*
-6.9090e-4
RAAN
245.5479°
Arg perigee
114.5285°
Mean anomaly
245.5868°
Rev number
25,018

§ Raw data

STARLINK-31461 49414U 21104G   26145.22295493 -.00011243  00000+0 -69090-3 0  99932 49414  53.2154 245.5479 0001545 114.5285 245.5868 15.08761031250187

JSON: /api/v1/satellites/49414 · /tle

For live sub-satellite position, see the globe view (requires WebGL).

§ Visibility from observer

Set your observer location to see the next 7 days of passes ≥ 10°. The values pass through the URL so the page stays shareable.

No JS? Fill the form by hand. The geolocation button needs JavaScript.